This demonstration page uses our WeatherBlox Daily Observations layout. Learn more.

Hourly Observations for October 26, 2018

Temp ( °F °C ) Dew Point ( °F °C ) Humidity (%) Winds ( mph kmh ) Pressure ( in mb ) Visibility ( mi km ) Precip ( " mm )
12:15 am 00:15 Clear 41 5.1 41 5.1 100 100 SW 8 13 29.94 1014 10 16.09344 0 0
12:35 am 00:35 Clear 41 5 41 5 100 100 Calm 29.97 1015 10 16.09344 0 0
12:55 am 00:55 Clear 41 4.9 41 4.9 100 100 SW 6 9 29.97 1015 10 16.09344 0 0
1:15 am 01:15 Clear 40 4.6 40 4.6 100 100 WSW 5 7 29.97 1015 10 16.09344 0 0
1:35 am 01:35 Clear 40 4.7 40 4.7 100 100 WSW 5 7 29.97 1015 10 16.09344 0 0
1:55 am 01:55 Clear 40 4.4 40 4.4 100 100 WSW 5 7 29.97 1015 10 16.09344 0 0
2:15 am 02:15 Clear 40 4.5 40 4.5 100 100 W 7 11 29.97 1015 10 16.09344 0 0
2:35 am 02:35 Clear 40 4.7 40 4.7 100 100 W 6 9 29.97 1015 10 16.09344 0 0
2:55 am 02:55 Clear 41 4.9 41 4.9 100 100 W 8 13 29.97 1015 10 16.09344 0 0
3:15 am 03:15 Clear 40 4.5 40 4.5 100 100 W 9 15 29.97 1015 10 16.09344 0 0
3:35 am 03:35 Partly Cloudy 41 4.8 40 4.6 99 99 WNW 7 11 29.97 1015 10 16.09344 0 0
3:55 am 03:55 Mostly Cloudy 41 4.8 40 4.5 98 98 NW 7 11 29.97 1015 10 16.09344 0 0
4:15 am 04:15 Cloudy 42 5.8 41 5.2 96 96 WNW 7 11 29.94 1014 10 16.09344 0 0
4:35 am 04:35 Cloudy 44 6.5 43 6 97 97 NW 9 15 29.94 1014 10 16.09344 0 0
4:55 am 04:55 Cloudy 45 7.2 43 6.1 93 93 NW 7 11 29.94 1014 10 16.09344 0 0
5:15 am 05:15 Cloudy 45 7 43 5.9 93 93 WNW 6 9 29.94 1014 10 16.09344 0 0
5:35 am 05:35 Partly Cloudy 44 6.5 42 5.5 93 93 WNW 6 9 29.94 1014 10 16.09344 0 0
5:55 am 05:55 Partly Cloudy 43 6.2 41 5.2 93 93 WNW 7 11 29.94 1014 10 16.09344 0 0
6:15 am 06:15 Partly Cloudy 43 6.2 41 5 92 92 WNW 6 9 29.94 1014 10 16.09344 0 0
6:35 am 06:35 Partly Cloudy 42 5.7 40 4.6 93 93 NW 6 9 29.94 1014 10 16.09344 0 0
6:55 am 06:55 Partly Cloudy 42 5.7 40 4.6 93 93 WNW 8 13 29.94 1014 10 16.09344 0 0
7:15 am 07:15 Mostly Cloudy 43 6 41 4.8 92 92 WNW 7 11 29.94 1014 10 16.09344 0 0
7:35 am 07:35 Cloudy 43 6.1 41 5 93 93 NW 6 9 29.94 1014 10 16.09344 0 0
7:55 am 07:55 Mostly Cloudy 44 6.7 42 5.4 92 92 WNW 7 11 29.94 1014 10 16.09344 0 0
8:15 am 08:15 Partly Cloudy 44 6.6 42 5.4 92 92 WNW 7 11 29.94 1014 10 16.09344 0 0
8:35 am 08:35 Mostly Cloudy 44 6.8 42 5.4 91 91 WNW 5 7 29.94 1014 10 16.09344 0 0
8:55 am 08:55 Mostly Cloudy 46 7.7 43 6 89 89 WNW 5 7 29.97 1015 10 16.09344 0 0
9:15 am 09:15 Partly Cloudy 46 7.8 43 6.1 89 89 WNW 6 9 29.97 1015 10 16.09344 0 0
9:35 am 09:35 Sunny 47 8.6 44 6.8 89 89 WNW 5 7 29.94 1014 10 16.09344 0 0
9:55 am 09:55 Sunny 51 10.5 46 7.7 83 83 WNW 8 13 29.94 1014 10 16.09344 0 0
10:15 am 10:15 Sunny 53 11.7 46 7.8 77 77 NW 9 15 29.94 1014 10 16.09344 0 0
10:35 am 10:35 Sunny 55 12.6 46 7.9 73 73 NW 7 11 29.91 1013 10 16.09344 0 0
10:55 am 10:55 Sunny 56 13.6 47 8.2 70 70 NW 8 13 29.91 1013 10 16.09344 0 0
11:15 am 11:15 Sunny 59 15 48 8.8 67 67 WNW 7 11 29.91 1013 10 16.09344 0 0
11:35 am 11:35 Sunny 59 15.2 46 7.8 62 62 W 9 15 29.91 1013 10 16.09344 0 0
11:55 am 11:55 Sunny 62 16.5 46 7.5 56 56 WNW 9 15 29.88 1012 10 16.09344 0 0
12:15 pm 12:15 Sunny 63 17.1 44 6.7 51 51 WNW 7 11 29.88 1012 10 16.09344 0 0
12:35 pm 12:35 Sunny 65 18.1 43 6.2 46 46 WNW 8 13 29.88 1012 10 16.09344 0 0
12:55 pm 12:55 Sunny 65 18.6 40 4.4 39 39 NNW 10 17 29.88 1012 10 16.09344 0 0
1:15 pm 13:15 Sunny 65 18.3 39 3.8 38 38 NW 9 15 29.85 1011 10 16.09344 0 0
1:35 pm 13:35 Sunny 66 19.1 40 4.7 39 39 WNW 14 22 29.83 1010 10 16.09344 0 0
1:55 pm 13:55 Sunny 67 19.3 40 4.6 38 38 W 13 20 29.8 1009 10 16.09344 0 0
2:15 pm 14:15 Sunny 67 19.3 38 3.5 35 35 WNW 14 22 29.8 1009 10 16.09344 0 0
2:35 pm 14:35 Sunny 68 19.9 40 4.2 36 36 WNW 10 17 29.8 1009 10 16.09344 0 0
2:55 pm 14:55 Sunny 68 20.1 39 3.8 34 34 WNW 12 19 29.8 1009 10 16.09344 0 0
3:15 pm 15:15 Sunny 68 20 38 3.5 34 34 WNW 13 20 29.77 1008 10 16.09344 0 0
3:35 pm 15:35 Sunny 68 20.1 39 3.8 34 34 NW 14 22 29.77 1008 10 16.09344 0 0
3:55 pm 15:55 Sunny 68 20.1 38 3.6 34 34 NW 15 24 29.77 1008 10 16.09344 0 0
4:15 pm 16:15 Sunny 68 20.1 39 3.8 34 34 NW 9 15 29.77 1008 10 16.09344 0 0
4:35 pm 16:35 Sunny 68 20.1 37 2.7 32 32 NW 14 22 29.77 1008 10 16.09344 0 0
4:55 pm 16:55 Sunny 67 19.7 36 2.4 32 32 NW 12 19 29.8 1009 10 16.09344 0 0
5:15 pm 17:15 Sunny 67 19.5 37 2.9 33 33 NNW 10 17 29.8 1009 10 16.09344 0 0
5:35 pm 17:35 Partly Cloudy 66 19 36 2.4 33 33 NNW 8 13 29.8 1009 10 16.09344 0 0
5:55 pm 17:55 Partly Cloudy 65 18.3 37 3 36 36 NNW 6 9 29.8 1009 10 16.09344 0 0
6:15 pm 18:15 Partly Cloudy 63 17.4 38 3.2 39 39 NW 5 7 29.83 1010 10 16.09344 0 0
6:35 pm 18:35 Mostly Cloudy 60 15.8 39 3.7 45 45 NW 5 7 29.83 1010 10 16.09344 0 0
6:55 pm 18:55 Cloudy 59 14.9 39 4.1 49 49 NW 5 7 29.83 1010 10 16.09344 0 0
7:15 pm 19:15 Partly Cloudy 56 13.6 39 4.1 53 53 NW 5 7 29.85 1011 10 16.09344 0 0
7:35 pm 19:35 Clear 56 13.2 39 3.7 53 53 NNW 5 7 29.85 1011 10 16.09344 0 0
7:55 pm 19:55 Clear 55 12.6 38 3.5 54 54 N 5 7 29.88 1012 10 16.09344 0 0
8:15 pm 20:15 Mostly Cloudy 53 11.6 39 3.9 59 59 NNW 5 7 29.91 1013 10 16.09344 0 0
8:35 pm 20:35 Cloudy 53 11.9 38 3.4 56 56 NNW 3 6 29.88 1012 10 16.09344 0 0
8:55 pm 20:55 Partly Cloudy 52 11.3 38 3.4 59 59 Calm 29.91 1013 10 16.09344 0 0
9:15 pm 21:15 Clear 49 9.5 39 3.7 67 67 W 3 6 29.91 1013 10 16.09344 0 0
9:35 pm 21:35 Clear 49 9.4 38 3.6 67 67 WNW 5 7 29.91 1013 10 16.09344 0 0
9:55 pm 21:55 Clear 49 9.6 38 3.5 66 66 W 5 7 29.91 1013 10 16.09344 0 0
10:15 pm 22:15 Clear 50 10.1 39 3.7 65 65 WNW 6 9 29.94 1014 10 16.09344 0 0
10:35 pm 22:35 Clear 49 9.3 39 3.8 69 69 WNW 5 7 29.94 1014 10 16.09344 0 0
10:55 pm 22:55 Clear 48 8.9 39 3.7 70 70 WNW 6 9 29.94 1014 10 16.09344 0 0
11:15 pm 23:15 Clear 49 9.2 38 3.3 67 67 W 7 11 29.94 1014 10 16.09344 0 0
11:35 pm 23:35 Clear 51 10.5 37 2.8 59 59 W 8 13 29.94 1014 10 16.09344 0 0
11:55 pm 23:55 Clear 51 10.6 37 2.6 58 58 W 8 13 29.94 1014 10 16.09344 0 0

Powered by AerisWeather